Time,TemperatureF,DewpointF,PressureIn,WindDirection,WindDirectionDegrees,WindSpeedMPH,WindSpeedGustMPH,Humidity,HourlyPrecipIn,Conditions,Clouds,dailyrainin,SoftwareType,DateUTC
2013-07-12 00:02:00,57.8,57.0,29.98,NE,50,1.0,1.0,98,0.00,,,0.46,weatherlink.com 1.10,2013-07-12 04:02:00,
2013-07-12 00:17:00,57.6,57.0,29.98,NE,49,1.0,1.0,97,0.00,,,0.46,weatherlink.com 1.10,2013-07-12 04:17:00,
2013-07-12 00:32:00,57.6,57.0,29.98,NE,50,1.0,2.0,97,0.00,,,0.46,weatherlink.com 1.10,2013-07-12 04:32:00,
2013-07-12 00:47:00,58.1,57.0,29.98,NE,50,1.0,2.0,95,0.00,,,0.46,weatherlink.com 1.10,2013-07-12 04:47:00,
2013-07-12 01:02:00,58.5,57.0,29.99,NNW,339,1.0,2.0,93,0.00,,,0.46,weatherlink.com 1.10,2013-07-12 05:02:00,
2013-07-12 01:17:00,58.7,57.0,29.99,NNE,22,1.0,2.0,93,0.00,,,0.46,weatherlink.com 1.10,2013-07-12 05:17:00,
2013-07-12 01:32:00,58.8,57.0,29.99,NNW,338,2.0,3.0,92,0.00,,,0.46,weatherlink.com 1.10,2013-07-12 05:32:00,
2013-07-12 01:47:00,59.0,57.0,29.99,North,360,0.0,3.0,92,0.00,,,0.46,weatherlink.com 1.10,2013-07-12 05:47:00,
2013-07-12 02:03:00,58.9,57.0,30.00,NNW,344,0.0,2.0,92,0.00,,,0.46,weatherlink.com 1.10,2013-07-12 06:03:00,
2013-07-12 02:18:00,58.9,56.0,30.00,NE,42,0.0,1.0,91,0.00,,,0.00,weatherlink.com 1.10,2013-07-12 06:18:00,
2013-07-12 02:33:00,58.8,56.0,30.01,NNE,33,0.0,2.0,91,0.00,,,0.00,weatherlink.com 1.10,2013-07-12 06:33:00,
2013-07-12 02:48:00,58.7,56.0,30.01,NNW,340,0.0,2.0,92,0.00,,,0.00,weatherlink.com 1.10,2013-07-12 06:48:00,
2013-07-12 03:03:00,58.5,56.0,30.02,NW,307,0.0,2.0,92,0.00,,,0.00,weatherlink.com 1.10,2013-07-12 07:03:00,
2013-07-12 03:18:00,58.0,56.0,30.02,NNE,21,3.0,3.0,93,0.00,,,0.00,weatherlink.com 1.10,2013-07-12 07:18:00,
2013-07-12 03:33:00,58.3,56.0,30.02,SW,236,0.0,2.0,92,0.00,,,0.00,weatherlink.com 1.10,2013-07-12 07:33:00,
2013-07-12 03:48:00,58.1,56.0,30.03,NNW,332,0.0,1.0,93,0.00,,,0.00,weatherlink.com 1.10,2013-07-12 07:48:00,
2013-07-12 04:03:00,58.0,56.0,30.04,NW,309,0.0,2.0,93,0.00,,,0.00,weatherlink.com 1.10,2013-07-12 08:03:00,
2013-07-12 04:18:00,57.7,56.0,30.04,WSW,257,0.0,1.0,94,0.00,,,0.00,weatherlink.com 1.10,2013-07-12 08:18:00,
2013-07-12 04:33:00,57.8,56.0,30.04,NNW,327,0.0,2.0,93,0.00,,,0.00,weatherlink.com 1.10,2013-07-12 08:33:00,
2013-07-12 04:48:00,57.9,56.0,30.05,WNW,292,0.0,1.0,93,0.00,,,0.00,weatherlink.com 1.10,2013-07-12 08:48:00,
2013-07-12 05:03:00,56.9,56.0,30.05,NW,325,0.0,1.0,95,0.00,,,0.00,weatherlink.com 1.10,2013-07-12 09:03:00,
2013-07-12 05:18:00,56.8,55.0,30.05,NW,320,0.0,1.0,95,0.00,,,0.00,weatherlink.com 1.10,2013-07-12 09:18:00,
2013-07-12 05:33:00,56.5,55.0,30.06,West,259,0.0,1.0,96,0.00,,,0.00,weatherlink.com 1.10,2013-07-12 09:33:00,
2013-07-12 05:48:00,56.0,55.0,30.07,West,260,0.0,1.0,97,0.00,,,0.00,weatherlink.com 1.10,2013-07-12 09:48:00,
2013-07-12 06:03:00,56.1,55.0,30.07,West,260,0.0,1.0,97,0.00,,,0.00,weatherlink.com 1.10,2013-07-12 10:03:00,
2013-07-12 06:18:00,57.5,57.0,30.08,West,260,0.0,0.0,98,0.00,,,0.00,weatherlink.com 1.10,2013-07-12 10:18:00,
2013-07-12 06:33:00,59.5,58.0,30.08,NE,53,0.0,0.0,93,0.00,,,0.00,weatherlink.com 1.10,2013-07-12 10:33:00,
2013-07-12 06:48:00,61.1,58.0,30.08,NE,51,1.0,1.0,90,0.00,,,0.00,weatherlink.com 1.10,2013-07-12 10:48:00,
2013-07-12 07:03:00,61.1,57.0,30.08,East,84,1.0,2.0,87,0.00,,,0.00,weatherlink.com 1.10,2013-07-12 11:03:00,
2013-07-12 07:18:00,61.7,59.0,30.09,East,83,0.0,1.0,89,0.00,,,0.00,weatherlink.com 1.10,2013-07-12 11:18:00,
2013-07-12 07:33:00,63.5,60.0,30.09,NNE,15,0.0,1.0,87,0.00,,,0.00,weatherlink.com 1.10,2013-07-12 11:33:00,
2013-07-12 07:48:00,65.0,60.0,30.10,ESE,102,0.0,1.0,84,0.00,,,0.00,weatherlink.com 1.10,2013-07-12 11:48:00,
2013-07-12 08:03:00,65.7,61.0,30.10,ENE,74,0.0,1.0,85,0.00,,,0.00,weatherlink.com 1.10,2013-07-12 12:03:00,
2013-07-12 08:18:00,67.2,61.0,30.11,SW,215,0.0,1.0,80,0.00,,,0.00,weatherlink.com 1.10,2013-07-12 12:18:00,
2013-07-12 08:34:00,67.8,61.0,30.11,NE,35,0.0,1.0,80,0.00,,,0.00,weatherlink.com 1.10,2013-07-12 12:34:00,
2013-07-12 08:49:00,68.5,62.0,30.11,SW,229,0.0,0.0,80,0.00,,,0.00,weatherlink.com 1.10,2013-07-12 12:49:00,
2013-07-12 09:04:00,69.0,61.0,30.12,SSW,194,0.0,2.0,75,0.00,,,0.00,weatherlink.com 1.10,2013-07-12 13:04:00,
2013-07-12 09:19:00,69.5,61.0,30.12,ESE,117,0.0,1.0,73,0.00,,,0.00,weatherlink.com 1.10,2013-07-12 13:19:00,
2013-07-12 09:34:00,70.3,60.0,30.12,SW,215,1.0,5.0,71,0.00,,,0.00,weatherlink.com 1.10,2013-07-12 13:34:00,
2013-07-12 09:49:00,70.8,59.0,30.11,ENE,66,1.0,3.0,66,0.00,,,0.00,weatherlink.com 1.10,2013-07-12 13:49:00,
2013-07-12 10:04:00,71.2,58.0,30.12,SE,134,1.0,4.0,64,0.00,,,0.00,weatherlink.com 1.10,2013-07-12 14:04:00,
2013-07-12 10:19:00,72.4,63.0,30.12,NW,315,0.0,3.0,73,0.00,,,0.00,weatherlink.com 1.10,2013-07-12 14:19:00,
2013-07-12 10:34:00,72.8,59.0,30.13,SE,135,0.0,3.0,62,0.00,,,0.00,weatherlink.com 1.10,2013-07-12 14:34:00,
2013-07-12 10:49:00,73.6,61.0,30.13,WNW,289,3.0,3.0,65,0.00,,,0.00,weatherlink.com 1.10,2013-07-12 14:49:00,
2013-07-12 11:04:00,73.7,61.0,30.13,SW,222,1.0,4.0,64,0.00,,,0.00,weatherlink.com 1.10,2013-07-12 15:04:00,
2013-07-12 11:19:00,74.6,59.0,30.13,ENE,75,0.0,2.0,59,0.00,,,0.00,weatherlink.com 1.10,2013-07-12 15:19:00,
2013-07-12 11:34:00,75.9,57.0,30.12,South,184,0.0,2.0,53,0.00,,,0.00,weatherlink.com 1.10,2013-07-12 15:34:00,
2013-07-12 11:49:00,76.2,60.0,30.12,NE,49,0.0,2.0,58,0.00,,,0.00,weatherlink.com 1.10,2013-07-12 15:49:00,
2013-07-12 12:19:00,76.5,59.0,30.12,ESE,120,1.0,2.0,55,0.00,,,0.00,weatherlink.com 1.10,2013-07-12 16:19:00,
2013-07-12 12:34:00,76.6,58.0,30.12,East,90,0.0,2.0,53,0.00,,,0.00,weatherlink.com 1.10,2013-07-12 16:34:00,
2013-07-12 12:49:00,76.0,60.0,30.11,ENE,74,1.0,5.0,57,0.00,,,0.00,weatherlink.com 1.10,2013-07-12 16:49:00,
2013-07-12 13:34:00,74.8,60.0,30.11,SSE,156,0.0,2.0,60,0.00,,,0.00,weatherlink.com 1.10,2013-07-12 17:34:00,
2013-07-12 14:19:00,74.6,57.0,30.11,South,176,1.0,3.0,55,0.00,,,0.00,weatherlink.com 1.10,2013-07-12 18:19:00,
2013-07-12 14:34:00,74.8,59.0,30.11,NNW,347,0.0,3.0,58,0.00,,,0.00,weatherlink.com 1.10,2013-07-12 18:34:00,
2013-07-12 14:49:00,75.1,55.0,30.11,ENE,58,2.0,3.0,50,0.00,,,0.00,weatherlink.com 1.10,2013-07-12 18:49:00,
2013-07-12 15:04:00,75.0,58.0,30.12,NE,53,2.0,2.0,55,0.00,,,0.00,weatherlink.com 1.10,2013-07-12 19:04:00,
2013-07-12 15:19:00,74.6,55.0,30.11,SW,232,1.0,3.0,50,0.00,,,0.00,weatherlink.com 1.10,2013-07-12 19:19:00,
2013-07-12 15:34:00,74.6,52.0,30.11,SW,214,1.0,1.0,46,0.00,,,0.00,weatherlink.com 1.10,2013-07-12 19:34:00,
2013-07-12 15:49:00,74.8,55.0,30.11,ESE,113,0.0,3.0,51,0.00,,,0.00,weatherlink.com 1.10,2013-07-12 19:49:00,
2013-07-12 16:04:00,74.5,54.0,30.11,West,269,0.0,2.0,49,0.00,,,0.00,weatherlink.com 1.10,2013-07-12 20:04:00,
2013-07-12 16:19:00,74.0,57.0,30.11,WSW,252,0.0,3.0,55,0.00,,,0.00,weatherlink.com 1.10,2013-07-12 20:19:00,
2013-07-12 16:34:00,73.8,56.0,30.11,SE,136,1.0,1.0,54,0.00,,,0.00,weatherlink.com 1.10,2013-07-12 20:34:00,
2013-07-12 16:49:00,74.2,58.0,30.11,SE,143,0.0,1.0,57,0.00,,,0.00,weatherlink.com 1.10,2013-07-12 20:49:00,
2013-07-12 17:04:00,74.1,59.0,30.12,SE,142,0.0,0.0,59,0.00,,,0.00,weatherlink.com 1.10,2013-07-12 21:04:00,
2013-07-12 17:19:00,74.0,57.0,30.11,SSE,151,0.0,1.0,56,0.00,,,0.00,weatherlink.com 1.10,2013-07-12 21:19:00,
2013-07-12 17:34:00,72.9,59.0,30.11,SSE,150,0.0,0.0,62,0.00,,,0.00,weatherlink.com 1.10,2013-07-12 21:34:00,
2013-07-12 17:49:00,72.9,58.0,30.11,SSE,150,0.0,0.0,60,0.00,,,0.00,weatherlink.com 1.10,2013-07-12 21:49:00,
2013-07-12 18:04:00,71.8,61.0,30.12,SSE,150,0.0,0.0,69,0.00,,,0.00,weatherlink.com 1.10,2013-07-12 22:04:00,
2013-07-12 18:19:00,70.8,61.0,30.11,SSE,150,0.0,0.0,72,0.00,,,0.00,weatherlink.com 1.10,2013-07-12 22:19:00,
2013-07-12 18:49:00,68.1,62.0,30.12,SE,129,1.0,1.0,81,0.00,,,0.00,weatherlink.com 1.10,2013-07-12 22:49:00,
2013-07-12 19:19:00,66.0,61.0,30.12,SE,128,1.0,1.0,84,0.00,,,0.00,weatherlink.com 1.10,2013-07-12 23:19:00,
2013-07-12 19:34:00,65.7,60.0,30.12,ESE,107,2.0,2.0,82,0.00,,,0.00,weatherlink.com 1.10,2013-07-12 23:34:00,
2013-07-12 20:04:00,64.9,59.0,30.12,ENE,70,1.0,1.0,81,0.00,,,0.00,weatherlink.com 1.10,2013-07-13 00:04:00,
2013-07-12 20:19:00,64.6,60.0,30.13,ENE,68,1.0,1.0,84,0.00,,,0.00,weatherlink.com 1.10,2013-07-13 00:19:00,
2013-07-12 20:35:00,64.8,61.0,30.14,ENE,68,1.0,1.0,86,0.00,,,0.00,weatherlink.com 1.10,2013-07-13 00:35:00,
2013-07-12 20:50:00,64.5,61.0,30.14,ENE,65,1.0,1.0,87,0.00,,,0.00,weatherlink.com 1.10,2013-07-13 00:50:00,
2013-07-12 21:05:00,64.2,60.0,30.15,ENE,66,0.0,2.0,87,0.00,,,0.00,weatherlink.com 1.10,2013-07-13 01:05:00,
2013-07-12 21:20:00,64.2,61.0,30.15,ENE,66,0.0,1.0,88,0.00,,,0.00,weatherlink.com 1.10,2013-07-13 01:20:00,
2013-07-12 21:35:00,64.0,60.0,30.16,ENE,66,0.0,1.0,88,0.00,,,0.00,weatherlink.com 1.10,2013-07-13 01:35:00,
2013-07-12 22:05:00,64.1,61.0,30.16,NE,46,0.0,1.0,88,0.00,,,0.00,weatherlink.com 1.10,2013-07-13 02:05:00,
2013-07-12 22:20:00,63.9,61.0,30.16,NE,47,0.0,1.0,89,0.00,,,0.00,weatherlink.com 1.10,2013-07-13 02:20:00,
2013-07-12 22:35:00,63.5,61.0,30.16,NE,46,2.0,2.0,90,0.00,,,0.00,weatherlink.com 1.10,2013-07-13 02:35:00,
2013-07-12 22:50:00,63.5,61.0,30.17,NE,46,1.0,2.0,90,0.00,,,0.00,weatherlink.com 1.10,2013-07-13 02:50:00,
2013-07-12 23:20:00,63.2,60.0,30.18,NE,46,1.0,1.0,90,0.00,,,0.00,weatherlink.com 1.10,2013-07-13 03:20:00,
2013-07-12 23:50:00,62.9,60.0,30.18,NE,46,0.0,2.0,89,0.00,,,0.00,weatherlink.com 1.10,2013-07-13 03:50:00,